TimeEDT,TemperatureF,Dew PointF,Humidity,Sea Level PressureIn,VisibilityMPH,Wind Direction,Wind SpeedMPH,Gust SpeedMPH,PrecipitationIn,Events,Conditions,WindDirDegrees,DateUTC
12:53 AM,54.0,36.0,51,30.16,10.0,SE,5.8,-,N/A,,Clear,130,2013-03-11 04:53:00
1:53 AM,53.1,41.0,64,30.15,10.0,SSE,5.8,-,N/A,,Clear,150,2013-03-11 05:53:00
2:53 AM,52.0,43.0,71,30.15,10.0,South,4.6,-,N/A,,Clear,170,2013-03-11 06:53:00
3:53 AM,50.0,44.1,80,30.12,10.0,SSE,5.8,-,N/A,,Clear,150,2013-03-11 07:53:00
4:53 AM,50.0,43.0,77,30.10,10.0,Calm,Calm,-,N/A,,Scattered Clouds,0,2013-03-11 08:53:00
5:05 AM,51.8,42.8,71,30.11,10.0,Calm,Calm,-,N/A,,Mostly Cloudy,0,2013-03-11 09:05:00
5:29 AM,51.8,42.8,71,30.11,10.0,Calm,Calm,-,N/A,,Overcast,0,2013-03-11 09:29:00
5:50 AM,50.0,42.8,76,30.10,10.0,Calm,Calm,-,N/A,,Overcast,0,2013-03-11 09:50:00
5:53 AM,50.0,43.0,77,30.09,10.0,Calm,Calm,-,N/A,,Overcast,0,2013-03-11 09:53:00
6:16 AM,50.0,42.8,76,30.10,10.0,SE,3.5,-,N/A,,Overcast,130,2013-03-11 10:16:00
6:53 AM,50.0,42.1,74,30.10,10.0,Calm,Calm,-,N/A,,Mostly Cloudy,0,2013-03-11 10:53:00
7:48 AM,51.8,41.0,67,30.10,10.0,SE,6.9,-,N/A,,Overcast,140,2013-03-11 11:48:00
7:53 AM,51.1,41.0,68,30.10,10.0,SE,5.8,-,N/A,,Overcast,130,2013-03-11 11:53:00
8:30 AM,51.8,41.0,67,30.10,10.0,SSE,4.6,-,N/A,,Overcast,150,2013-03-11 12:30:00
8:48 AM,51.8,41.0,67,30.11,10.0,SSE,9.2,-,N/A,,Overcast,150,2013-03-11 12:48:00
8:53 AM,51.1,41.0,68,30.10,10.0,SSE,5.8,-,N/A,,Overcast,150,2013-03-11 12:53:00
9:21 AM,51.8,42.8,71,30.11,10.0,South,4.6,-,N/A,,Overcast,170,2013-03-11 13:21:00
9:53 AM,53.1,42.1,66,30.10,10.0,South,6.9,-,N/A,,Overcast,180,2013-03-11 13:53:00
10:53 AM,55.0,45.0,69,30.08,10.0,South,11.5,-,N/A,,Overcast,180,2013-03-11 14:53:00
11:53 AM,57.0,46.0,67,30.06,10.0,South,12.7,-,N/A,,Overcast,180,2013-03-11 15:53:00
12:53 PM,63.0,48.0,58,30.03,10.0,South,15.0,24.2,N/A,,Mostly Cloudy,180,2013-03-11 16:53:00
1:53 PM,64.9,48.9,56,29.98,10.0,SSE,13.8,-,N/A,,Overcast,160,2013-03-11 17:53:00
2:53 PM,66.0,48.0,52,29.93,10.0,South,16.1,23.0,N/A,,Mostly Cloudy,180,2013-03-11 18:53:00
3:53 PM,66.9,48.0,51,29.90,10.0,South,16.1,19.6,N/A,,Mostly Cloudy,170,2013-03-11 19:53:00
4:53 PM,66.0,48.0,52,29.88,10.0,South,13.8,-,N/A,,Overcast,170,2013-03-11 20:53:00
5:53 PM,64.9,48.0,54,29.86,10.0,SSE,13.8,-,N/A,,Overcast,160,2013-03-11 21:53:00
6:53 PM,64.0,48.0,56,29.86,10.0,SSE,12.7,-,0.00,,Overcast,150,2013-03-11 22:53:00
7:53 PM,57.9,53.1,84,29.88,6.0,South,6.9,-,0.07,Rain,Rain,170,2013-03-11 23:53:00
8:53 PM,57.0,54.0,89,29.86,6.0,SE,4.6,-,0.07,Rain,Rain,130,2013-03-12 00:53:00
9:19 PM,57.2,53.6,88,29.90,2.5,West,8.1,-,0.14,Rain,Heavy Rain,270,2013-03-12 01:19:00
9:29 PM,57.2,53.6,88,29.89,4.0,West,4.6,-,0.18,Rain,Rain,270,2013-03-12 01:29:00
9:44 PM,57.2,53.6,88,29.89,4.0,West,3.5,-,0.21,Rain,Rain,270,2013-03-12 01:44:00
9:53 PM,57.0,54.0,89,29.88,4.0,Calm,Calm,-,0.24,Rain,Rain,0,2013-03-12 01:53:00
10:53 PM,55.9,54.0,93,29.86,5.0,Calm,Calm,-,0.17,Rain,Rain,0,2013-03-12 02:53:00
11:06 PM,55.4,55.4,100,29.86,5.0,Calm,Calm,-,0.04,Rain,Heavy Rain,0,2013-03-12 03:06:00
11:53 PM,55.9,55.0,97,29.83,8.0,East,3.5,-,0.10,Rain,Light Rain,90,2013-03-12 03:53:00